When you browse on this site, cookies collect data to enhance your experience and personalize the content and advertising you see.
Visit our Privacy Policy to learn more. By continuing to use the site, you agree to this use of cookies and data.
  • In Portugal
  • List of Countries
  • For 7 days
  • Water Temperature
  • Satellite Maps
  • Weather Map
  • Weather Widgets
  • user-avatar
    Login

    Hourly Weather Belmopan

    Today, 24 July, Wednesday

    Time Temperature Precipitation Wind Pressure Humidity
    00:00 +25°C° 0 mm 1 mps 753 mmHg 98%
    01:00 +24°C° 0 mm 1 mps 753 mmHg 98%
    02:00 +22°C° 0 mm 0 mps 753 mmHg 98%
    03:00 +22°C° 0 mm 0 mps 752 mmHg 99%
    04:00 +22°C° 0 mm 0 mps 752 mmHg 98%
    05:00 +22°C° 0 mm 0 mps 752 mmHg 97%
    06:00 +22°C° 0 mm 0 mps 753 mmHg 96%
    07:00 +25°C° 0 mm 0 mps 753 mmHg 84%
    08:00 +28°C° 0 mm 0 mps 753 mmHg 71%
    09:00 +32°C° 0 mm 1 mps 754 mmHg 59%
    10:00 +34°C° 0 mm 1 mps 753 mmHg 53%
    11:00 +36°C° 0 mm 2 mps 753 mmHg 47%
    12:00 +37°C° 0 mm 2 mps 753 mmHg 41%
    13:00 +37°C° 0 mm 2 mps 752 mmHg 42%
    14:00 +37°C° 0 mm 3 mps 751 mmHg 43%
    15:00 +37°C° 0 mm 3 mps 750 mmHg 44%
    16:00 +35°C° 0 mm 3 mps 751 mmHg 53%
    17:00 +32°C° 0 mm 2 mps 751 mmHg 62%
    18:00 +30°C° 0 mm 2 mps 751 mmHg 70%
    19:00 +29°C° 0 mm 2 mps 751 mmHg 77%
    20:00 +28°C° 0 mm 2 mps 752 mmHg 85%
    21:00 +26°C° 0 mm 2 mps 752 mmHg 92%
    22:00 +26°C° 0 mm 1 mps 752 mmHg 94%
    23:00 +26°C° 0 mm 1 mps 752 mmHg 96%

    Tomorrow, 25 July, Thursday

    Time Temperature Precipitation Wind Pressure Humidity
    00:00 +25°C° 0 mm 1 mps 752 mmHg 98%
    01:00 +23°C° 0 mm 0 mps 752 mmHg 98%
    02:00 +23°C° 0 mm 0 mps 752 mmHg 98%
    03:00 +23°C° 0 mm 0 mps 751 mmHg 99%
    04:00 +23°C° 0.1 mm 0 mps 752 mmHg 98%
    05:00 +23°C° 0.1 mm 0 mps 752 mmHg 98%
    06:00 +23°C° 0.1 mm 0 mps 752 mmHg 98%
    07:00 +27°C° 0.2 mm 1 mps 752 mmHg 90%
    08:00 +29°C° 0.2 mm 1 mps 753 mmHg 83%
    09:00 +31°C° 0.2 mm 2 mps 753 mmHg 76%
    10:00 +32°C° 0.1 mm 2 mps 753 mmHg 68%
    11:00 +34°C° 0.1 mm 3 mps 753 mmHg 61%
    12:00 +36°C° 0.1 mm 3 mps 753 mmHg 53%
    13:00 +36°C° 0 mm 3 mps 752 mmHg 52%
    14:00 +36°C° 0 mm 3 mps 751 mmHg 52%
    15:00 +36°C° 0 mm 3 mps 751 mmHg 51%
    16:00 +34°C° 0 mm 3 mps 751 mmHg 59%
    17:00 +33°C° 0 mm 3 mps 751 mmHg 66%
    18:00 +30°C° 0 mm 2 mps 751 mmHg 73%
    19:00 +29°C° 0 mm 2 mps 752 mmHg 81%
    20:00 +28°C° 0 mm 2 mps 752 mmHg 89%
    21:00 +26°C° 0 mm 1 mps 753 mmHg 97%
    22:00 +26°C° 0 mm 1 mps 753 mmHg 97%
    23:00 +26°C° 0 mm 1 mps 753 mmHg 97%

    Day after tomorrow, 26 July, Friday

    Time Temperature Precipitation Wind Pressure Humidity
    00:00 +26°C° 0 mm 1 mps 753 mmHg 98%
    01:00 +26°C° 0.1 mm 1 mps 753 mmHg 98%
    02:00 +26°C° 0.1 mm 1 mps 753 mmHg 98%
    03:00 +25°C° 0.1 mm 1 mps 752 mmHg 98%
    04:00 +25°C° 0 mm 1 mps 752 mmHg 98%
    05:00 +25°C° 0 mm 1 mps 753 mmHg 98%
    06:00 +25°C° 0 mm 1 mps 753 mmHg 98%
    07:00 +28°C° 0 mm 2 mps 753 mmHg 85%
    08:00 +30°C° 0 mm 2 mps 754 mmHg 73%
    09:00 +33°C° 0 mm 3 mps 754 mmHg 60%
    10:00 +34°C° 0.1 mm 3 mps 754 mmHg 57%
    11:00 +35°C° 0.1 mm 3 mps 754 mmHg 55%
    12:00 +35°C° 0.1 mm 3 mps 754 mmHg 52%
    13:00 +34°C° 0.5 mm 3 mps 753 mmHg 57%
    14:00 +34°C° 0.5 mm 3 mps 753 mmHg 63%
    15:00 +33°C° 0.5 mm 3 mps 753 mmHg 68%
    16:00 +31°C° 0.3 mm 2 mps 753 mmHg 73%
    17:00 +29°C° 0.3 mm 2 mps 753 mmHg 78%
    18:00 +28°C° 0.3 mm 1 mps 753 mmHg 83%
    19:00 +27°C° 0.1 mm 1 mps 753 mmHg 88%
    20:00 +26°C° 0.1 mm 1 mps 754 mmHg 93%
    21:00 +23°C° 0.1 mm 0 mps 754 mmHg 98%
    22:00 +23°C° 0.1 mm 0 mps 754 mmHg 98%
    23:00 +22°C° 0.1 mm 0 mps 754 mmHg 98%

    27 July, Saturday

    Time Temperature Precipitation Wind Pressure Humidity
    00:00 +22°C° 0.1 mm 0 mps 754 mmHg 98%
    01:00 +22°C° 0 mm 0 mps 754 mmHg 98%
    02:00 +22°C° 0 mm 0 mps 753 mmHg 98%
    03:00 +22°C° 0 mm 0 mps 753 mmHg 99%
    04:00 +22°C° 0 mm 0 mps 753 mmHg 99%
    05:00 +22°C° 0 mm 0 mps 753 mmHg 99%
    06:00 +22°C° 0 mm 0 mps 754 mmHg 99%
    07:00 +24°C° 0 mm 0 mps 754 mmHg 86%
    08:00 +29°C° 0 mm 1 mps 755 mmHg 73%
    09:00 +31°C° 0 mm 1 mps 755 mmHg 60%
    10:00 +32°C° 0 mm 2 mps 755 mmHg 56%
    11:00 +35°C° 0 mm 2 mps 754 mmHg 52%
    12:00 +36°C° 0 mm 3 mps 754 mmHg 48%
    13:00 +35°C° 0.3 mm 3 mps 754 mmHg 52%
    14:00 +34°C° 0.3 mm 3 mps 753 mmHg 56%
    15:00 +34°C° 0.3 mm 3 mps 753 mmHg 59%
    16:00 +32°C° 0 mm 2 mps 753 mmHg 64%
    17:00 +31°C° 0 mm 2 mps 753 mmHg 68%
    18:00 +30°C° 0 mm 2 mps 753 mmHg 72%
    19:00 +28°C° 0.1 mm 1 mps 753 mmHg 80%
    20:00 +27°C° 0.1 mm 1 mps 754 mmHg 88%
    21:00 +25°C° 0.1 mm 1 mps 754 mmHg 96%
    22:00 +23°C° 0.3 mm 0 mps 754 mmHg 97%
    23:00 +23°C° 0.3 mm 0 mps 754 mmHg 98%

    28 July, Sunday

    Time Temperature Precipitation Wind Pressure Humidity
    00:00 +23°C° 0.3 mm 0 mps 754 mmHg 99%
    01:00 +23°C° 0.3 mm 0 mps 754 mmHg 98%
    02:00 +23°C° 0.3 mm 0 mps 753 mmHg 98%
    03:00 +23°C° 0.3 mm 0 mps 753 mmHg 97%
    04:00 +23°C° 0.2 mm 0 mps 753 mmHg 97%
    05:00 +23°C° 0.2 mm 0 mps 753 mmHg 97%
    06:00 +25°C° 0.2 mm 1 mps 753 mmHg 97%
    07:00 +27°C° 0.2 mm 1 mps 754 mmHg 88%
    08:00 +29°C° 0.2 mm 2 mps 754 mmHg 79%
    09:00 +31°C° 0.2 mm 3 mps 755 mmHg 70%
    10:00 +31°C° 0.3 mm 3 mps 755 mmHg 68%
    11:00 +33°C° 0.3 mm 3 mps 754 mmHg 66%
    12:00 +33°C° 0.3 mm 3 mps 754 mmHg 65%
    13:00 +34°C° 0.2 mm 3 mps 754 mmHg 63%
    14:00 +34°C° 0.2 mm 3 mps 753 mmHg 62%
    15:00 +34°C° 0.2 mm 3 mps 752 mmHg 61%
    16:00 +33°C° 0.1 mm 3 mps 752 mmHg 66%
    17:00 +31°C° 0.1 mm 2 mps 753 mmHg 72%
    18:00 +29°C° 0.1 mm 2 mps 753 mmHg 77%
    19:00 +28°C° 0.2 mm 1 mps 753 mmHg 84%
    20:00 +27°C° 0.2 mm 1 mps 754 mmHg 90%
    21:00 +25°C° 0.2 mm 1 mps 754 mmHg 97%
    22:00 +25°C° 0.1 mm 1 mps 754 mmHg 97%
    23:00 +25°C° 0.1 mm 1 mps 754 mmHg 98%

    29 July, Monday

    Time Temperature Precipitation Wind Pressure Humidity
    00:00 +23°C° 0.1 mm 0 mps 753 mmHg 98%
    01:00 +23°C° 0.1 mm 0 mps 753 mmHg 98%
    02:00 +22°C° 0.1 mm 0 mps 753 mmHg 98%
    03:00 +22°C° 0.1 mm 0 mps 753 mmHg 98%
    04:00 +22°C° 0.3 mm 0 mps 753 mmHg 98%
    05:00 +22°C° 0.3 mm 0 mps 753 mmHg 98%
    06:00 +22°C° 0.3 mm 0 mps 753 mmHg 98%
    07:00 +24°C° 0.3 mm 0 mps 754 mmHg 90%
    08:00 +29°C° 0.3 mm 1 mps 754 mmHg 82%
    09:00 +31°C° 0.3 mm 1 mps 754 mmHg 73%
    10:00 +32°C° 0.2 mm 2 mps 754 mmHg 64%
    11:00 +35°C° 0.2 mm 2 mps 754 mmHg 55%
    12:00 +36°C° 0.2 mm 2 mps 753 mmHg 45%
    13:00 +36°C° 0 mm 3 mps 753 mmHg 45%
    14:00 +36°C° 0 mm 3 mps 752 mmHg 44%
    15:00 +37°C° 0 mm 3 mps 751 mmHg 44%
    16:00 +35°C° 0 mm 2 mps 751 mmHg 51%
    17:00 +32°C° 0 mm 2 mps 751 mmHg 58%
    18:00 +31°C° 0 mm 2 mps 751 mmHg 66%
    19:00 +29°C° 0.1 mm 1 mps 752 mmHg 76%
    20:00 +27°C° 0.1 mm 1 mps 752 mmHg 85%
    21:00 +26°C° 0.1 mm 1 mps 752 mmHg 95%
    22:00 +25°C° 0 mm 1 mps 752 mmHg 96%
    23:00 +23°C° 0 mm 0 mps 752 mmHg 97%
    Show more